Location: Newark
(45.5000°N, 11.4167°E)
Time: 01:22:31
(UTC+00:00)

Vanguard 1 Rocket - Visible Passes

Search period start: 21 August 2019 00:00
Search period end: 31 August 2019 00:00
Orbit: 652 x 4224 km, 34.3° (Epoch: 20 August)

Date Brightness Start Highest point End Pass type
(mag) Time Alt. Az. Time Alt. Az. Time Alt. Az.
21 Aug 8.8 01:45:16 17° SSE 01:45:16 17° SSE 01:48:28 10° ESE visible
22 Aug 8.3 02:55:24 19° SSW 02:57:54 28° SSE 03:03:50 10° ESE visible
23 Aug 8.7 01:48:15 19° SSE 01:48:15 19° SSE 01:51:24 10° ESE visible
24 Aug 8.3 02:58:25 20° SSW 03:00:40 27° S 03:06:20 10° ESE visible
25 Aug 8.6 01:51:18 20° SSE 01:51:18 20° SSE 01:54:14 10° ESE visible
26 Aug 8.2 03:01:30 20° SW 03:03:29 25° S 03:08:44 10° SE visible
27 Aug 8.6 01:54:26 19° SSE 01:54:26 19° SSE 01:56:57 10° ESE visible
28 Aug 8.3 03:04:42 19° SSW 03:06:19 22° S 03:11:01 10° SE visible
29 Aug 8.8 01:57:40 17° SSE 01:57:40 17° SSE 01:59:35 10° SE visible
30 Aug 8.4 03:08:00 17° SSW 03:09:09 18° S 03:13:06 10° SSE visible
